| time (UTC) | temp F | wind direction | speed MPH | gust MPH | rain 1hr in | rain 24hr in | rain mn in | humidity % | barometer mb |
| 20260504060119 | 57 | 113 | 3.0 | 8.0 | 0.00 | 0.00 | 0.00 | 73 | 1011.2 |
| 20260504050341 | 57 | 90 | 2.0 | 11.0 | 0.00 | 0.00 | 0.00 | 74 | 1011.4 |
| 20260504045321 | 57 | 0 | 3.0 | 11.0 | 0.00 | 0.00 | 0.00 | 74 | 1011.9 |
| 20260504044811 | 57 | 90 | 4.0 | 11.0 | 0.00 | 0.00 | 0.00 | 74 | 1011.9 |
| 20260504044300 | 57 | 68 | 2.0 | 11.0 | 0.00 | 0.00 | 0.00 | 74 | 1011.8 |
| 20260504043750 | 57 | 90 | 5.0 | 11.0 | 0.00 | 0.00 | 0.00 | 73 | 1012.1 |
| 20260504043241 | 58 | 270 | 4.0 | 11.0 | 0.00 | 0.00 | 0.00 | 73 | 1012.2 |
| 20260504042730 | 58 | 68 | 3.0 | 11.0 | 0.00 | 0.00 | 0.00 | 72 | 1012.2 |
| 20260504042220 | 58 | 90 | 3.0 | 11.0 | 0.00 | 0.00 | 0.00 | 72 | 1012.0 |
| 20260504041709 | 58 | 45 | 4.0 | 11.0 | 0.00 | 0.00 | 0.00 | 72 | 1012.0 |
| 20260504041200 | 58 | 45 | 4.0 | 8.0 | 0.00 | 0.00 | 0.00 | 72 | 1012.3 |
| 20260504040650 | 58 | 68 | 2.0 | 8.0 | 0.00 | 0.00 | 0.00 | 71 | 1012.2 |
| 20260504040139 | 58 | 90 | 3.0 | 11.0 | 0.00 | 0.00 | 0.00 | 71 | 1012.5 |
| 20260504035630 | 58 | 23 | 2.0 | 11.0 | 0.00 | 0.00 | 0.00 | 71 | 1012.5 |
| 20260504034609 | 58 | 90 | 5.0 | 14.0 | 0.00 | 0.00 | 0.00 | 71 | 1012.6 |
| 20260504034059 | 58 | 45 | 2.0 | 9.0 | 0.00 | 0.00 | 0.00 | 71 | 1012.7 |
| 20260504033549 | 58 | 90 | 4.0 | 11.0 | 0.00 | 0.00 | 0.00 | 71 | 1012.4 |
| 20260504033039 | 58 | 90 | 3.0 | 11.0 | 0.00 | 0.00 | 0.00 | 70 | 1012.3 |
| 20260504032018 | 58 | 45 | 2.0 | 9.0 | 0.00 | 0.00 | 0.00 | 70 | 1012.4 |
| 20260504031508 | 58 | 338 | 4.0 | 11.0 | 0.00 | 0.00 | 0.00 | 69 | 1012.4 |
| 20260504030959 | 58 | 68 | 3.0 | 11.0 | 0.00 | 0.00 | 0.00 | 69 | 1012.2 |
| 20260504030448 | 58 | 90 | 4.0 | 9.0 | 0.00 | 0.00 | 0.00 | 69 | 1012.4 |
| 20260504025938 | 58 | 338 | 3.0 | 13.0 | 0.00 | 0.00 | 0.00 | 69 | 1012.2 |
| 20260504025428 | 58 | 113 | 2.0 | 13.0 | 0.00 | 0.00 | 0.00 | 69 | 1012.4 |
| 20260504024407 | 58 | 68 | 3.0 | 11.0 | 0.00 | 0.00 | 0.00 | 68 | 1012.2 |
| 20260504023347 | 58 | 68 | 2.0 | 7.0 | 0.00 | 0.00 | 0.00 | 68 | 1012.3 |
| 20260504022327 | 58 | 68 | 3.0 | 9.0 | 0.00 | 0.00 | 0.00 | 68 | 1012.2 |
| 20260504021307 | 58 | 90 | 2.0 | 11.0 | 0.00 | 0.00 | 0.00 | 69 | 1012.3 |
| 20260504020756 | 58 | 45 | 2.0 | 8.0 | 0.00 | 0.00 | 0.00 | 69 | 1012.4 |
| 20260504020247 | 58 | 113 | 3.0 | 7.0 | 0.00 | 0.00 | 0.00 | 69 | 1012.3 |
| 20260504015737 | 58 | 68 | 2.0 | 7.0 | 0.00 | 0.00 | 0.00 | 69 | 1012.6 |
| 20260504015226 | 58 | 90 | 3.0 | 7.0 | 0.00 | 0.00 | 0.00 | 69 | 1012.4 |
| 20260504014717 | 57 | 90 | 2.0 | 7.0 | 0.00 | 0.00 | 0.00 | 69 | 1012.3 |
| 20260504014205 | 57 | 113 | 2.0 | 8.0 | 0.00 | 0.00 | 0.00 | 70 | 1012.6 |
| 20260504013659 | 57 | 293 | 2.0 | 8.0 | 0.00 | 0.00 | 0.00 | 69 | 1012.7 |
| 20260504013145 | 57 | 68 | 1.0 | 7.0 | 0.00 | 0.00 | 0.00 | 69 | 1012.6 |
| 20260504012637 | 57 | 68 | 3.0 | 8.0 | 0.00 | 0.00 | 0.00 | 69 | 1012.9 |
| 20260504012126 | 57 | 90 | 2.0 | 8.0 | 0.00 | 0.00 | 0.00 | 70 | 1012.7 |
| 20260504011104 | 56 | 113 | 3.0 | 8.0 | 0.00 | 0.00 | 0.00 | 71 | 1012.5 |
| 20260504010554 | 56 | 68 | 2.0 | 8.0 | 0.00 | 0.00 | 0.00 | 71 | 1012.4 |
| 20260504010045 | 56 | 338 | 2.0 | 9.0 | 0.00 | 0.00 | 0.00 | 71 | 1012.9 |
| 20260504005534 | 56 | 135 | 2.0 | 9.0 | 0.00 | 0.00 | 0.00 | 72 | 1012.9 |
| 20260504005025 | 56 | 113 | 2.0 | 6.0 | 0.00 | 0.00 | 0.00 | 72 | 1012.7 |
| 20260504004004 | 55 | 225 | 2.0 | 6.0 | 0.00 | 0.00 | 0.00 | 73 | 1013.2 |
| 20260504003454 | 55 | 90 | 2.0 | 6.0 | 0.00 | 0.00 | 0.00 | 73 | 1013.3 |
| 20260504002434 | 55 | 113 | 2.0 | 6.0 | 0.00 | 0.00 | 0.00 | 73 | 1013.1 |
| 20260504001923 | 55 | 90 | 2.0 | 8.0 | 0.00 | 0.00 | 0.00 | 72 | 1013.3 |
| 20260504001413 | 55 | 113 | 2.0 | 8.0 | 0.00 | 0.00 | 0.00 | 72 | 1013.5 |
| 20260504000903 | 55 | 225 | 2.0 | 6.0 | 0.00 | 0.00 | 0.00 | 72 | 1013.3 |
| 20260504000357 | 55 | 113 | 2.0 | 7.0 | 0.00 | 0.00 | 0.00 | 72 | 1013.3 |
| 20260503235843 | 55 | 270 | 2.0 | 7.0 | 0.00 | 0.00 | 0.00 | 72 | 1013.4 |
| 20260503235332 | 55 | 23 | 1.0 | 7.0 | 0.00 | 0.00 | 0.00 | 72 | 1013.7 |
| 20260503234823 | 55 | 113 | 2.0 | 7.0 | 0.00 | 0.00 | 0.00 | 71 | 1013.7 |
| 20260503234313 | 55 | 90 | 2.0 | 7.0 | 0.00 | 0.00 | 0.00 | 71 | 1013.5 |
| 20260503233802 | 55 | 180 | 2.0 | 7.0 | 0.00 | 0.00 | 0.00 | 71 | 1013.7 |
| 20260503233252 | 55 | 113 | 2.0 | 7.0 | 0.00 | 0.00 | 0.00 | 71 | 1013.6 |
| 20260503232742 | 55 | 45 | 2.0 | 6.0 | 0.00 | 0.00 | 0.00 | 70 | 1013.7 |
| 20260503232231 | 55 | 68 | 3.0 | 7.0 | 0.00 | 0.00 | 0.00 | 70 | 1013.8 |
| 20260503230701 | 55 | 0 | 2.0 | 8.0 | 0.00 | 0.00 | 0.00 | 69 | 1014.2 |
| 20260503230151 | 55 | 0 | 2.0 | 8.0 | 0.00 | 0.00 | 0.00 | 69 | 1014.4 |
| 20260503225641 | 55 | 90 | 1.0 | 6.0 | 0.00 | 0.00 | 0.00 | 70 | 1014.6 |
| 20260503225131 | 55 | 113 | 2.0 | 6.0 | 0.00 | 0.00 | 0.00 | 70 | 1014.6 |
| 20260503224621 | 55 | 68 | 2.0 | 6.0 | 0.00 | 0.00 | 0.00 | 71 | 1014.5 |
| 20260503224111 | 55 | 0 | 1.0 | 6.0 | 0.00 | 0.00 | 0.00 | 71 | 1014.4 |
| 20260503223600 | 55 | 248 | 2.0 | 7.0 | 0.00 | 0.00 | 0.00 | 70 | 1014.7 |
| 20260503222541 | 55 | 203 | 2.0 | 7.0 | 0.00 | 0.00 | 0.00 | 69 | 1014.9 |
| 20260503222030 | 55 | 203 | 4.0 | 7.0 | 0.00 | 0.00 | 0.00 | 69 | 1014.9 |
| 20260503221520 | 55 | 45 | 2.0 | 7.0 | 0.00 | 0.00 | 0.00 | 69 | 1014.9 |
| 20260503221010 | 55 | 90 | 2.0 | 7.0 | 0.00 | 0.00 | 0.00 | 69 | 1014.7 |
| 20260503220459 | 55 | 68 | 2.0 | 6.0 | 0.00 | 0.00 | 0.00 | 69 | 1014.9 |
| 20260503215443 | 55 | 270 | 2.0 | 6.0 | 0.00 | 0.00 | 0.00 | 69 | 1015.0 |
| 20260503214929 | 55 | 68 | 2.0 | 7.0 | 0.00 | 0.00 | 0.00 | 69 | 1015.0 |
| 20260503214420 | 55 | 45 | 2.0 | 7.0 | 0.00 | 0.00 | 0.00 | 69 | 1015.1 |
| 20260503213359 | 55 | 270 | 2.0 | 8.0 | 0.00 | 0.00 | 0.00 | 69 | 1014.9 |
| 20260503212850 | 55 | 45 | 3.0 | 8.0 | 0.00 | 0.00 | 0.00 | 70 | 1015.2 |
| 20260503212339 | 55 | 113 | 2.0 | 7.0 | 0.00 | 0.00 | 0.00 | 70 | 1015.3 |
| 20260503211830 | 55 | 45 | 3.0 | 7.0 | 0.00 | 0.00 | 0.00 | 70 | 1015.3 |
| 20260503211319 | 55 | 68 | 2.0 | 6.0 | 0.00 | 0.00 | 0.00 | 70 | 1015.3 |
| 20260503210808 | 55 | 203 | 2.0 | 6.0 | 0.00 | 0.00 | 0.00 | 70 | 1015.3 |
| 20260503210259 | 56 | 135 | 2.0 | 6.0 | 0.00 | 0.00 | 0.00 | 70 | 1015.3 |
| 20260503205748 | 56 | 113 | 3.0 | 6.0 | 0.00 | 0.00 | 0.00 | 71 | 1015.2 |
| 20260503204728 | 56 | 45 | 1.0 | 7.0 | 0.00 | 0.00 | 0.00 | 71 | 1015.3 |
| 20260503204217 | 56 | 0 | 1.0 | 7.0 | 0.00 | 0.00 | 0.00 | 71 | 1015.3 |
| 20260503203708 | 57 | 248 | 3.0 | 9.0 | 0.00 | 0.00 | 0.00 | 70 | 1015.2 |
| 20260503203156 | 57 | 68 | 2.0 | 9.0 | 0.00 | 0.00 | 0.00 | 68 | 1015.3 |
| 20260503202647 | 57 | 45 | 2.0 | 6.0 | 0.00 | 0.00 | 0.00 | 67 | 1015.1 |
| 20260503201627 | 57 | 68 | 2.0 | 8.0 | 0.00 | 0.00 | 0.00 | 67 | 1015.6 |
| 20260503201117 | 57 | 68 | 2.0 | 8.0 | 0.00 | 0.00 | 0.00 | 67 | 1015.6 |
| 20260503200607 | 57 | 45 | 4.0 | 7.0 | 0.00 | 0.00 | 0.00 | 67 | 1015.9 |
| 20260503195546 | 59 | 180 | 3.0 | 9.0 | 0.00 | 0.00 | 0.00 | 63 | 1015.9 |
| 20260503195036 | 59 | 45 | 2.0 | 9.0 | 0.00 | 0.00 | 0.00 | 61 | 1016.1 |
| 20260503194526 | 59 | 45 | 4.0 | 9.0 | 0.00 | 0.00 | 0.00 | 60 | 1016.1 |
| 20260503194016 | 59 | 45 | 2.0 | 8.0 | 0.00 | 0.00 | 0.00 | 60 | 1016.2 |
| 20260503192445 | 60 | 113 | 4.0 | 11.0 | 0.00 | 0.00 | 0.00 | 57 | 1016.0 |
| 20260503191935 | 60 | 23 | 4.0 | 11.0 | 0.00 | 0.00 | 0.00 | 56 | 1016.1 |
| 20260503191426 | 60 | 248 | 4.0 | 11.0 | 0.00 | 0.00 | 0.00 | 55 | 1016.3 |
| 20260503190406 | 60 | 203 | 3.0 | 9.0 | 0.00 | 0.00 | 0.00 | 55 | 1016.5 |
| 20260503185854 | 61 | 45 | 3.0 | 11.0 | 0.00 | 0.00 | 0.00 | 55 | 1016.8 |
| 20260503184324 | 60 | 90 | 4.0 | 9.0 | 0.00 | 0.00 | 0.00 | 55 | 1016.7 |
| 20260503183813 | 61 | 45 | 3.0 | 9.0 | 0.00 | 0.00 | 0.00 | 54 | 1016.8 |
| 20260503183304 | 61 | 68 | 4.0 | 9.0 | 0.00 | 0.00 | 0.00 | 54 | 1016.7 |
| 20260503182753 | 61 | 68 | 3.0 | 9.0 | 0.00 | 0.00 | 0.00 | 52 | 1016.8 |
| 20260503182244 | 61 | 315 | 2.0 | 9.0 | 0.00 | 0.00 | 0.00 | 52 | 1016.9 |
| 20260503181734 | 61 | 23 | 3.0 | 8.0 | 0.00 | 0.00 | 0.00 | 51 | 1017.1 |
| 20260503181226 | 61 | 135 | 4.0 | 8.0 | 0.00 | 0.00 | 0.00 | 52 | 1017.0 |
| 20260503175851 | 61 | 90 | 2.0 | 11.0 | 0.00 | 0.00 | 0.00 | 52 | 1017.2 |
| 20260503174830 | 61 | 68 | 7.0 | 13.0 | 0.00 | 0.00 | 0.00 | 52 | 1017.4 |
| 20260503173809 | 61 | 45 | 3.0 | 11.0 | 0.00 | 0.00 | 0.00 | 51 | 1017.6 |
| 20260503173259 | 61 | 90 | 3.0 | 11.0 | 0.00 | 0.00 | 0.00 | 52 | 1017.7 |
| 20260503172751 | 61 | 45 | 2.0 | 9.0 | 0.00 | 0.00 | 0.00 | 52 | 1018.0 |
| 20260503172239 | 62 | 68 | 3.0 | 8.0 | 0.00 | 0.00 | 0.00 | 51 | 1018.0 |
| 20260503171728 | 61 | 68 | 3.0 | 8.0 | 0.00 | 0.00 | 0.00 | 51 | 1018.1 |
| 20260503171219 | 61 | 68 | 4.0 | 8.0 | 0.00 | 0.00 | 0.00 | 51 | 1017.9 |
| 20260503170709 | 61 | 45 | 5.0 | 8.0 | 0.00 | 0.00 | 0.00 | 51 | 1018.0 |
| 20260503170159 | 61 | 23 | 3.0 | 11.0 | 0.00 | 0.00 | 0.00 | 51 | 1018.2 |
| 20260503150816 | 58 | 0 | 2.0 | 9.0 | 0.00 | 0.00 | 0.00 | 53 | 1020.7 |
| 20260503140104 | 55 | 113 | 4.0 | 11.0 | 0.00 | 0.00 | 0.00 | 60 | 1021.9 |
| 20260503130922 | 51 | 45 | 1.0 | 4.0 | 0.00 | 0.00 | 0.00 | 73 | 1021.8 |
| 20260503130412 | 50 | 45 | 2.0 | 4.0 | 0.00 | 0.00 | 0.00 | 73 | 1021.9 |
| 20260503120211 | 43 | 68 | 2.0 | 2.0 | 0.00 | 0.00 | 0.00 | 85 | 1022.6 |
| 20260503110519 | 39 | 68 | 0.0 | 2.0 | 0.00 | 0.00 | 0.00 | 93 | 1022.2 |
| 20260503081444 | 39 | 45 | 2.0 | 4.0 | 0.00 | 0.00 | 0.00 | 93 | 1022.6 |
| 20260503080934 | 39 | 90 | 1.0 | 4.0 | 0.00 | 0.00 | 0.00 | 93 | 1022.5 |
| 20260503080423 | 39 | 68 | 2.0 | 2.0 | 0.00 | 0.00 | 0.00 | 93 | 1022.4 |
| 20260503072812 | 40 | 68 | 1.0 | 2.0 | 0.00 | 0.00 | 0.00 | 92 | 1022.6 |
| 20260503072305 | 40 | 45 | 0.0 | 2.0 | 0.00 | 0.00 | 0.00 | 92 | 1022.6 |
| 20260503071752 | 40 | 45 | 2.0 | 4.0 | 0.00 | 0.00 | 0.00 | 92 | 1022.4 |
| 20260503071242 | 40 | 68 | 1.0 | 4.0 | 0.00 | 0.00 | 0.00 | 92 | 1022.6 |
| 20260503070732 | 40 | 45 | 2.0 | 2.0 | 0.00 | 0.00 | 0.00 | 91 | 1022.7 |
| 20260503070221 | 40 | 23 | 1.0 | 2.0 | 0.00 | 0.00 | 0.00 | 91 | 1022.7 |